Погода в Ас-Сальте

Иордания     32°02′16″N   35°43′23″E
темп.,
°C
ветер,
м/с
пор.,
м/с
влажн.,
%
обл.,
%
осадки,
мм/ч
давл.,
гПа
погр.,
м
10 августа, ср
ср1000:00+23сз23530 0.0 1009202
03:00+22сз12670 0.0 100889
06:00+21зсз11770 0.0 100830
09:00+23зсз34660 0.0 1009537
12:00+28зсз34450 0.0 1008822
15:00+31з45330 0.0 10061066
18:00+29сз66390 0.0 1006997
21:00+24сз45610 0.0 1008515
11 августа, чт
чт1100:00+23сз24740 0.0 1007326
03:00+22зсз12820 0.0 1007117
06:00+21зсз11873 0.0 100825
09:00+24з23650 0.0 1009538
12:00+29зсз44410 0.0 1008856
15:00+32зсз44300 0.0 10061168
18:00+31сз66330 0.0 10061022
21:00+26ссз34530 0.0 1008356
12 августа, пт
пт1200:00+24ссз22590 0.0 100853
03:00+23с11570 0.0 100818
06:00+22с22530 0.0 100817
09:00+27зсз22350 0.0 1008436
12:00+31зсз43250 0.0 1008799
15:00+33зсз44230 0.0 1006985
18:00+31сз55280 0.0 1007822
21:00+26ссз34410 0.0 1008264
13 августа, сб
сб1300:00+24сз11460 0.0 100831
03:00+23сз11480 0.0 100820
06:00+21сз11560 0.0 100819
09:00+25зсз23420 0.0 1009444
12:00+29зсз44310 0.0 1008724
15:00+32з45240 0.0 1007948
18:00+30зсз56280 0.0 1006992
21:00+25сз35570 0.0 1008414
14 августа, вс
вс1400:00+22сз12740 0.0 1008163
03:00+21сз11862 0.0 100855
06:00+20зюз129218 0.0 100833
09:00+23з23700 0.0 1008464
12:00+28з44450 0.0 1008721
15:00+31з44340 0.0 1006960
18:00+30зсз55370 0.0 1006981
21:00+25сз34590 0.0 1007369